{"data":{"norad_id":61890,"epoch":"2026-09-21T03:43:10.084512Z","epoch_age_seconds":131872,"freshness":"FRESH","line1":"1 61890U 24204S   26264.15497783  .00002191  00000+0  76004-4 0  9993","line2":"2 61890  53.1609 294.9455 0001256  66.3272 293.7862 15.34386729105087","mean_motion":15.34386729,"eccentricity":0.0001256,"inclination_deg":53.1609,"raan_deg":294.9455,"arg_perigee_deg":66.3272,"mean_anomaly_deg":293.7862,"bstar":7.6004e-5,"rev_number":10508,"period_min":93.848569776049,"perigee_km":461.88347021174,"apogee_km":463.60189918853,"semimajor_km":6840.8796847001,"source":"CELESTRAK","updated_at":"2026-09-22T09:00:49.447833Z"}}